Retour au catalogue

FENGYUN 1C DEB

ActifPO
NORAD 30843·DEBRIS·🇨🇳 China

Lancé May 10, 1999 depuis Taiyuan Satellite Launch Center

Loading…

Prochains Passages (prochaines 24 heures)

TLE

FraisSource: Space-Track

Époque: Sep 14, 2026, 05:08 UTC

1 30843U 99025AWD 26257.21420257  .00000373  00000-0  91010-4 0  9996
2 30843  98.8236 348.2794 0147277   6.0184 354.2736 14.52880953 32909

Suivez FENGYUN 1C DEB en temps réel avec AllMySat

Download on the App Store